[[{"header":{"parameterUnit":"m.s-1","parameterCategory":1,"la1":30.2991,"la2":30.254,"lo1":-89.0895,"lo2":-89.0444,"dx":0.0017,"dy":0.0017,"nx":28,"ny":28,"refTime":"2022-11-26T09:00:00:Z","depth":0,"parameterNumber":2,"parameterNumberName":"U-component_of_WINDS"},"data":[0,0,0,0,0,0,0,0,0,0,0,0,0,0,0,0,0,0,0,0,0,0,0,0,0,0,0,0,0,0,0,0,0,0,0,0,0,0,0,0,0,0,0,0,0,0,0,0,0,0,0,0,0,0,0,0,0,0,-5.3397,-5.3399,0,-5.3533,-5.3535,-5.3536,-5.3465,-5.3461,-5.3458,-5.3454,-5.3594,-5.3601,-5.3608,0,0,0,0,0,0,0,0,0,0,0,0,0,-5.3077,-5.3084,-5.3397,-5.3399,-5.3401,-5.3533,-5.3535,-5.3537,-5.3465,-5.3461,-5.3457,-5.3452,-5.3592,-5.36,-5.3609,0,0,0,0,0,0,0,0,0,0,0,0,0,-5.3215,-5.3086,-5.3397,-5.3381,-5.3381,-5.3532,-5.3535,-5.3537,-5.3466,-5.3461,-5.3455,-5.345,-5.3589,-5.3599,-5.361,-5.3785,0,0,-5.3642,-5.3647,0,0,0,0,0,0,0,0,-5.3207,-5.3227,-5.3382,-5.3382,-5.3383,-5.3476,-5.3473,-5.362,-5.3468,-5.3434,-5.3454,-5.3448,-5.3559,-5.3572,-5.361,-5.3791,-5.3797,-5.3643,-5.365,-5.3654,-5.3657,0,0,0,0,0,0,0,-5.3198,-5.3221,-5.3451,-5.3384,-5.3385,-5.3368,-5.3381,-5.3501,-5.3526,-5.3436,-5.3432,-5.3449,-5.3558,-5.3599,-5.3612,-5.3799,-5.3643,-5.3652,-5.3659,-5.3663,-5.4134,-5.4139,0,0,0,0,0,0,-5.3189,-5.3213,-5.3447,-5.3455,-5.328,-5.3378,-5.3393,-5.3452,-5.3524,-5.353,-5.3453,-5.3445,-5.3584,-5.36,-5.3617,-5.3828,-5.3654,-5.3664,-5.367,-5.4128,-5.4135,-5.4141,0,0,0,0,0,0,-5.3183,-5.3211,-5.3441,-5.3333,-5.3361,-5.3389,-5.3456,-5.3457,-5.3498,-5.3537,-5.3541,-5.349,-5.358,-5.3602,-5.3744,-5.3832,-5.3669,-5.3679,-5.412,-5.413,-5.4138,-5.4251,0,0,0,0,0,0,-5.3174,-5.3209,-5.3275,-5.3335,-5.3367,-5.3566,-5.3461,-5.3464,-5.3517,-5.3507,-5.3573,-5.3578,-5.3578,-5.3728,-5.3755,-5.3844,-5.3687,-5.4113,-5.4125,-5.4135,-5.4239,-5.4263,-5.4283,0,0,0,0,0,-5.3162,-5.3301,-5.3279,-5.3307,-5.3451,-5.3571,-5.3589,-5.3585,-5.3524,-5.3591,-5.3616,-5.3576,-5.3818,-5.3744,-5.3772,-5.3866,-5.4107,-5.4121,-5.4134,-5.423,-5.4258,-5.4282,0,0,0,0,0,0,-5.3251,-5.3309,-5.3284,-5.3447,-5.3505,-5.3559,-5.3643,-5.3615,-5.3692,-5.368,-5.3672,-5.3687,-5.3835,-5.3864,-5.3781,-5.404,-5.3953,-5.3973,-5.4016,-5.4043,-5.4064,-5.4054,-5.3696,0,0,0,0,0,-5.3289,-5.3382,-5.3427,-5.3566,-5.3596,-5.3615,-5.3667,-5.366,-5.3719,-5.3743,-5.3778,-5.3838,-5.3928,-5.3987,-5.4071,-5.4243,-5.4257,-5.4322,-5.4343,-5.4361,-5.4379,-5.4474,-5.4503,-5.4187,-5.4186,-5.4186,0,0,-5.3369,-5.3412,-5.3471,-5.3585,-5.3629,-5.3726,-5.3636,-5.3742,-5.3814,-5.3759,-5.3896,-5.3924,-5.399,-5.4149,-5.422,-5.4178,-5.4469,-5.4378,-5.4392,-5.44,-5.4491,-5.4521,-5.4547,-5.4196,-5.4194,-5.4193,0,0,-5.3565,-5.3606,-5.3727,-5.3773,-5.3841,-5.3853,-5.3882,-5.3941,-5.3958,-5.4095,-5.4056,-5.4142,-5.4296,-5.4345,-5.439,-5.4606,-5.4573,-5.4634,-5.4747,-5.484,-5.4865,-5.4887,-5.4965,-5.4993,-5.4651,-5.4652,-5.4652,0,-5.3656,-5.38,-5.3792,-5.3902,-5.3954,-5.3909,-5.4032,-5.4077,-5.4169,-5.4206,-5.4157,-5.435,-5.4392,-5.4562,-5.4615,-5.4652,-5.4686,-5.4627,-5.4862,-5.4884,-5.4904,-5.4979,-5.5008,-5.4659,-5.4658,-5.4657,-5.4657,0,-5.3909,-5.401,-5.4099,-5.419,-5.4251,-5.4367,-5.4378,-5.4442,-5.4429,-5.4446,-5.4587,-5.4635,-5.4729,-5.4769,-5.4757,-5.4938,-5.491,-5.4862,-5.4774,-5.4942,-5.5012,-5.504,-5.4669,-5.4666,-5.4664,-5.4662,0,0,-5.4163,-5.425,-5.4283,-5.4324,-5.4396,-5.4474,-5.4588,-5.468,-5.4736,-5.4801,-5.4897,-5.5029,-5.4985,-5.5037,-5.503,-5.5111,-5.5282,-5.5053,-5.5055,-5.5095,-5.5486,-5.5522,-5.5556,-5.5259,-5.5265,-5.5269,-5.5481,0,-5.4365,-5.4564,-5.4562,-5.4747,-5.4841,-5.4801,-5.49,-5.4956,-5.4976,-5.5058,-5.508,-5.5174,-5.5108,-5.514,-5.5218,-5.5244,-5.536,-5.5229,-5.535,-5.5354,-5.5336,-5.5592,-5.5631,-5.5828,-5.5508,-5.5512,-5.5516,0,-5.4626,-5.4701,-5.4896,-5.4956,-5.4995,-5.5085,-5.517,-5.5249,-5.5312,-5.532,-5.5379,-5.536,-5.5477,-5.5386,-5.5548,-5.5459,-5.5508,-5.5529,-5.5536,-5.5548,-5.5446,-5.5612,-5.589,-5.5921,-5.5559,-5.5555,-5.5552,0,-5.4794,-5.4943,-5.5079,-5.5116,-5.5189,-5.5253,-5.5287,-5.5344,-5.54,-5.5474,-5.5511,-5.5598,-5.5646,-5.5714,-5.572,-5.5653,-5.5884,-5.5793,-5.5895,-5.5896,-5.5946,-5.5943,-5.6238,-5.5977,-5.5976,-5.5976,-5.5975,0,-5.5019,-5.514,-5.5156,-5.524,-5.5375,-5.5371,-5.5505,-5.5533,-5.5584,-5.5674,-5.5644,-5.5728,-5.573,-5.5817,-5.5822,-5.5956,-5.5978,-5.5989,-5.5989,-5.5992,-5.5991,-5.6025,-5.6012,-5.5984,-5.5982,-5.598,-5.5979,0,-5.5229,-5.5244,-5.5391,-5.5448,-5.5466,-5.5563,-5.5612,-5.5693,-5.571,-5.5823,-5.585,-5.5877,-5.5978,-5.599,-5.6107,-5.6111,-5.6273,-5.6258,-5.6252,-5.625,-5.6352,-5.6343,-5.668,-5.6724,-5.6433,-5.6436,-5.6439,0,-5.5373,-5.5465,-5.5533,-5.5591,-5.5628,-5.5721,-5.5779,-5.5779,-5.5841,-5.592,-5.5991,-5.6089,-5.6167,-5.633,-5.636,-5.645,-5.6438,-5.655,-5.6451,-5.6452,-5.6441,-5.6436,-5.6446,-5.6569,-5.6572,-5.6575,-5.6577,0,-5.5626,-5.5629,-5.5713,-5.5801,-5.587,-5.5939,-5.6004,-5.6053,-5.6061,-5.6132,-5.6235,-5.6295,-5.6416,-5.6514,-5.6603,-5.6637,-5.661,-5.6608,-5.6637,-5.6641,-5.6635,-5.6641,-5.6305,-5.66,-5.6598,-5.6596,-5.6595,-5.6594,-5.5808,-5.5889,-5.595,-5.6045,-5.6094,-5.6155,-5.6234,-5.6262,-5.6347,-5.6445,-5.6441,-5.6554,-5.6616,-5.6733,-5.6774,-5.6864,-5.6827,-5.6868,-5.6879,-5.6889,-5.69,-5.662,-5.688,-5.6879,-5.6878,-5.6878,-5.6877,0,-5.606,-5.6098,-5.6185,-5.6277,-5.6353,-5.632,-5.639,-5.6455,-5.6556,-5.6616,-5.6694,-5.6813,-5.6908,-5.6946,-5.704,-5.7104,-5.7094,-5.7129,-5.7124,-5.7133,-5.6927,-5.6893,-5.7135,-5.7135,-5.7135,-5.7135,-5.7135,-5.7135,-5.6201,-5.6336,-5.6347,-5.6507,-5.6544,-5.6655,-5.6699,-5.6756,-5.6804,-5.6938,-5.7017,-5.7041,-5.7094,-5.7191,-5.7277,-5.7286,-5.7322,-5.7363,-5.7367,-5.7173,-5.7147,-5.7123,-5.7091,-5.7371,-5.7371,-5.7565,-5.7567,-5.7569]},{"header":{"parameterUnit":"m.s-1","parameterCategory":1,"la1":30.2991,"la2":30.254,"lo1":-89.0895,"lo2":-89.0444,"dx":0.0017,"dy":0.0017,"nx":28,"ny":28,"refTime":"2022-11-26T09:00:00:Z","depth":0,"parameterNumber":3,"parameterNumberName":"V-component_of_WINDS"},"data":[0,0,0,0,0,0,0,0,0,0,0,0,0,0,0,0,0,0,0,0,0,0,0,0,0,0,0,0,0,0,0,0,0,0,0,0,0,0,0,0,0,0,0,0,0,0,0,0,0,0,0,0,0,0,0,0,0,0,-0.894,-0.894,0,-0.8978,-0.8978,-0.8979,-0.8971,-0.897,-0.8969,-0.8969,-0.901,-0.9011,-0.9013,0,0,0,0,0,0,0,0,0,0,0,0,0,-0.886,-0.8861,-0.894,-0.894,-0.8941,-0.8978,-0.8978,-0.8979,-0.8971,-0.897,-0.8969,-0.8968,-0.9009,-0.9011,-0.9013,0,0,0,0,0,0,0,0,0,0,0,0,0,-0.8896,-0.8862,-0.894,-0.8941,-0.8941,-0.8978,-0.8978,-0.8979,-0.8971,-0.897,-0.8969,-0.8968,-0.9008,-0.9011,-0.9014,-0.9051,0,0,-0.9022,-0.9023,0,0,0,0,0,0,0,0,-0.8894,-0.8899,-0.894,-0.8941,-0.8942,-0.8968,-0.8965,-0.9003,-0.8971,-0.896,-0.8969,-0.8967,-0.8997,-0.9,-0.901,-0.9053,-0.9055,-0.9022,-0.9023,-0.9025,-0.9025,0,0,0,0,0,0,0,-0.8892,-0.8897,-0.8955,-0.8941,-0.8942,-0.894,-0.8944,-0.8973,-0.8984,-0.8961,-0.896,-0.8965,-0.8997,-0.9007,-0.9011,-0.9056,-0.9022,-0.9024,-0.9026,-0.9027,-0.9131,-0.9132,0,0,0,0,0,0,-0.8888,-0.8895,-0.8954,-0.8956,-0.8915,-0.8942,-0.8947,-0.8961,-0.8984,-0.8986,-0.8966,-0.8964,-0.9003,-0.9008,-0.9012,-0.9058,-0.9025,-0.9027,-0.9029,-0.913,-0.9131,-0.9133,0,0,0,0,0,0,-0.8887,-0.8894,-0.8952,-0.8925,-0.8933,-0.8945,-0.8961,-0.8962,-0.8973,-0.8987,-0.8989,-0.8974,-0.9003,-0.9009,-0.9041,-0.9059,-0.9028,-0.9031,-0.9129,-0.913,-0.9132,-0.9149,0,0,0,0,0,0,-0.8884,-0.8893,-0.8907,-0.8926,-0.8934,-0.898,-0.8962,-0.8964,-0.8977,-0.8976,-0.8996,-0.8998,-0.9002,-0.9037,-0.9044,-0.9062,-0.9033,-0.9127,-0.9129,-0.9131,-0.9147,-0.9151,-0.9155,0,0,0,0,0,-0.8882,-0.8911,-0.8908,-0.8915,-0.8952,-0.8981,-0.8986,-0.899,-0.8978,-0.8993,-0.9002,-0.8998,-0.9056,-0.9041,-0.9048,-0.9067,-0.9126,-0.9129,-0.9131,-0.9145,-0.915,-0.9154,0,0,0,0,0,0,-0.8896,-0.8914,-0.8911,-0.8947,-0.8963,-0.898,-0.8999,-0.8995,-0.9015,-0.9013,-0.9017,-0.9022,-0.9055,-0.9064,-0.9047,-0.9105,-0.9089,-0.9094,-0.9097,-0.9102,-0.9106,-0.9103,-0.9035,0,0,0,0,0,-0.8903,-0.8924,-0.8939,-0.897,-0.8978,-0.8987,-0.9,-0.9001,-0.9017,-0.9024,-0.9036,-0.9052,-0.9074,-0.9089,-0.911,-0.9148,-0.9152,-0.9165,-0.9168,-0.9172,-0.9175,-0.9196,-0.9201,-0.9141,-0.9141,-0.9141,0,0,-0.8918,-0.8931,-0.8944,-0.8973,-0.8985,-0.9008,-0.8992,-0.9017,-0.9034,-0.9028,-0.9059,-0.9068,-0.9087,-0.9123,-0.9139,-0.9132,-0.9193,-0.9175,-0.9177,-0.9179,-0.9199,-0.9205,-0.921,-0.9143,-0.9143,-0.9143,0,0,-0.8957,-0.8969,-0.8996,-0.9008,-0.9026,-0.9032,-0.9038,-0.9056,-0.9061,-0.9092,-0.9088,-0.9108,-0.9146,-0.916,-0.9171,-0.9214,-0.9211,-0.9221,-0.9242,-0.9261,-0.9266,-0.927,-0.9285,-0.9291,-0.9225,-0.9225,-0.9225,0,-0.8974,-0.9008,-0.901,-0.9034,-0.9047,-0.9042,-0.9069,-0.9081,-0.9105,-0.9114,-0.9105,-0.9152,-0.9165,-0.9203,-0.9213,-0.9223,-0.923,-0.9219,-0.9265,-0.9269,-0.9273,-0.9288,-0.9293,-0.9226,-0.9226,-0.9226,-0.9226,0,-0.9027,-0.905,-0.9069,-0.9092,-0.9107,-0.9133,-0.9139,-0.9154,-0.9153,-0.916,-0.9192,-0.9206,-0.9229,-0.9239,-0.9239,-0.9277,-0.9271,-0.9264,-0.9249,-0.928,-0.9294,-0.9299,-0.9228,-0.9227,-0.9227,-0.9227,0,0,-0.9077,-0.91,-0.9107,-0.9117,-0.9136,-0.9154,-0.9179,-0.9201,-0.9214,-0.9231,-0.9252,-0.9283,-0.9276,-0.9289,-0.9291,-0.9308,-0.9341,-0.9299,-0.9299,-0.9306,-0.9383,-0.9388,-0.9395,-0.9338,-0.934,-0.934,-0.9381,0,-0.9118,-0.9162,-0.9164,-0.9204,-0.9225,-0.922,-0.9242,-0.9256,-0.9263,-0.9282,-0.9289,-0.9311,-0.93,-0.9308,-0.9325,-0.9334,-0.9357,-0.9331,-0.9359,-0.9359,-0.9354,-0.9402,-0.9408,-0.9446,-0.9387,-0.9387,-0.9388,0,-0.9172,-0.9189,-0.9231,-0.9246,-0.9255,-0.9275,-0.9295,-0.9313,-0.9329,-0.9332,-0.9346,-0.9346,-0.9371,-0.9355,-0.939,-0.9373,-0.9384,-0.939,-0.9392,-0.9395,-0.9376,-0.9406,-0.9458,-0.9464,-0.9397,-0.9396,-0.9395,0,-0.9204,-0.9238,-0.9267,-0.9275,-0.9294,-0.9308,-0.9316,-0.9331,-0.9344,-0.9362,-0.937,-0.9391,-0.9402,-0.9418,-0.9423,-0.9411,-0.9458,-0.9442,-0.9462,-0.9462,-0.9473,-0.9472,-0.9527,-0.948,-0.948,-0.948,-0.948,0,-0.9249,-0.9275,-0.9281,-0.9299,-0.9328,-0.933,-0.9358,-0.9366,-0.9379,-0.9398,-0.9395,-0.9414,-0.9419,-0.9438,-0.9442,-0.947,-0.9476,-0.9479,-0.948,-0.948,-0.9479,-0.9488,-0.9485,-0.9481,-0.9481,-0.9481,-0.9481,0,-0.929,-0.9295,-0.9326,-0.9341,-0.9345,-0.9366,-0.9378,-0.9396,-0.9401,-0.9426,-0.9432,-0.9441,-0.9463,-0.9469,-0.9497,-0.9499,-0.9533,-0.9531,-0.9527,-0.9527,-0.9547,-0.9545,-0.9609,-0.9618,-0.9565,-0.9566,-0.9566,0,-0.9319,-0.9338,-0.9354,-0.9367,-0.9376,-0.9396,-0.9409,-0.9411,-0.9425,-0.9444,-0.9459,-0.9481,-0.9498,-0.9534,-0.9544,-0.9564,-0.9563,-0.9584,-0.9566,-0.9565,-0.9563,-0.9562,-0.9564,-0.9588,-0.9589,-0.9589,-0.9589,0,-0.9369,-0.937,-0.9388,-0.9407,-0.9422,-0.9438,-0.9452,-0.9463,-0.9468,-0.9483,-0.9505,-0.9519,-0.9546,-0.9568,-0.9588,-0.9598,-0.9594,-0.9595,-0.96,-0.96,-0.9597,-0.9599,-0.9537,-0.9593,-0.9593,-0.9593,-0.9593,-0.9592,-0.9404,-0.9421,-0.9435,-0.9455,-0.9466,-0.948,-0.9496,-0.9503,-0.9522,-0.9544,-0.9544,-0.9569,-0.9583,-0.961,-0.9621,-0.964,-0.9634,-0.9642,-0.9644,-0.9646,-0.9648,-0.9594,-0.9644,-0.9644,-0.9644,-0.9643,-0.9643,0,-0.9454,-0.9462,-0.9481,-0.9501,-0.9517,-0.9511,-0.9527,-0.9541,-0.9562,-0.9576,-0.9593,-0.9618,-0.9639,-0.9649,-0.967,-0.9683,-0.9683,-0.9689,-0.9688,-0.969,-0.9652,-0.9645,-0.9689,-0.9689,-0.9689,-0.9689,-0.9689,-0.9689,-0.9482,-0.951,-0.9512,-0.9546,-0.9554,-0.9577,-0.9586,-0.9599,-0.961,-0.9638,-0.9655,-0.9661,-0.9674,-0.9695,-0.9714,-0.9716,-0.9724,-0.9731,-0.9733,-0.9698,-0.9693,-0.9688,-0.9682,-0.9733,-0.9733,-0.9769,-0.977,-0.977]}]]